Park Rapids, MN

10:08 AM CDT on March 24, 2017 (GMT -0500)
Park Rapids Municipal

Weather History for KPKD - August, 2012

Change the Weather History Date:

Monday, August 20, 2012

  Actual Average Record
Temperature  
Mean Temperature 58 °F -  
Max Temperature 75 °F 78 °F 98 °F (1976)
Min Temperature 41 °F 54 °F 32 °F (2004)
Degree Days  
Heating Degree Days 7    
Growing Degree Days 8 (Base 50)    
Moisture  
Dew Point 43 °F    
Average Humidity 60    
Maximum Humidity 93    
Minimum Humidity 27    
Precipitation  
Precipitation 0.00 in - - ()
Sea Level Pressure  
Sea Level Pressure 30.03 in    
Wind  
Wind Speed 2 mph (NW)    
Max Wind Speed 7 mph    
Max Gust Speed -    
Visibility 10 miles    
Events      
Averages and records for this station are not official NWS values.
T = Trace of Precipitation, MM = Missing Value Source: NWS Daily Summary

Daily Weather History Graph

Daily Weather History Graph

Search for Another Location

Airport or City:

Trip Planner

Search our weather history database for the weather conditions in past years. The results will help you decide how hot, cold, wet, or windy it might be!

Date:

Astronomy

Aug. 20, 2012 Rise Set
Actual Time 6:24 AM CDT 8:21 PM CDT
Civil Twilight 5:52 AM CDT 8:53 PM CDT
Nautical Twilight 5:11 AM CDT 9:33 PM CDT
Astronomical Twilight 4:27 AM CDT 10:17 PM CDT
Moon 10:06 AM CDT (8/20) 9:24 PM CDT (8/20)
Length of Visible Light 15h 01m
Length of Day
13h 56m
Waxing Crescent, 11% of the Moon is Illuminated
Aug 20
Waxing Crescent
Aug 24
First Quarter
Aug 31
Full
Sep 8
Last Quarter
Sep 15
New

Hourly Weather History & Observations

Time (CDT) Temp. Dew Point Humidity Pressure Visibility Wind Dir Wind Speed Gust Speed Precip Events Conditions
12:53 AM 48.0 °F 44.1 °F 86% 30.05 in 10.0 mi WNW 3.5 mph - N/A   Clear
1:53 AM 45.0 °F 42.1 °F 90% 30.05 in 10.0 mi Calm Calm - N/A   Clear
2:53 AM 43.0 °F 39.9 °F 89% 30.05 in 10.0 mi Calm Calm - N/A   Clear
3:53 AM 45.0 °F 42.1 °F 90% 30.05 in 10.0 mi Calm Calm - N/A   Clear
4:53 AM 42.1 °F 39.0 °F 89% 30.05 in 10.0 mi Calm Calm - N/A   Clear
5:53 AM 41.0 °F 39.0 °F 93% 30.05 in 10.0 mi Calm Calm - N/A   Clear
6:53 AM 42.1 °F 39.0 °F 89% 30.06 in 10.0 mi Calm Calm - N/A   Clear
7:53 AM 48.9 °F 45.0 °F 86% 30.06 in 10.0 mi Calm Calm - N/A   Clear
8:53 AM 57.9 °F 48.9 °F 72% 30.06 in 10.0 mi Calm Calm - N/A   Clear
9:53 AM 64.0 °F 48.9 °F 58% 30.05 in 10.0 mi West 3.5 mph - N/A   Clear
10:53 AM 69.1 °F 46.0 °F 44% 30.05 in 10.0 mi West 5.8 mph - N/A   Clear
11:53 AM 70.0 °F 37.9 °F 31% 30.04 in 10.0 mi Variable 4.6 mph - N/A   Clear
12:53 PM 71.1 °F 36.0 °F 28% 30.04 in 10.0 mi ENE 3.5 mph - N/A   Clear
1:53 PM 72.0 °F 39.0 °F 30% 30.03 in 10.0 mi Variable 3.5 mph - N/A   Clear
2:53 PM 73.9 °F 41.0 °F 30% 30.02 in 10.0 mi WNW 6.9 mph - N/A   Clear
3:53 PM 73.9 °F 37.9 °F 27% 30.01 in 10.0 mi Calm Calm - N/A   Clear
4:53 PM 75.0 °F 41.0 °F 29% 30.01 in 10.0 mi NW 6.9 mph - N/A   Clear
5:53 PM 75.0 °F 39.9 °F 28% 30.01 in 10.0 mi NNE 4.6 mph - N/A   Clear
6:53 PM 73.0 °F 42.1 °F 33% 30.01 in 10.0 mi Calm Calm - N/A   Clear
7:53 PM 71.1 °F 44.1 °F 38% 30.00 in 10.0 mi Calm Calm - N/A   Clear
8:53 PM 64.0 °F 46.9 °F 54% 30.02 in 10.0 mi Calm Calm - N/A   Clear
9:53 PM 60.1 °F 48.9 °F 67% 30.02 in 10.0 mi Calm Calm - N/A   Clear
10:53 PM 55.9 °F 48.0 °F 75% 30.02 in 10.0 mi Calm Calm - N/A   Clear
11:53 PM 50.0 °F 46.0 °F 86% 30.03 in 10.0 mi West 3.5 mph - N/A   Clear